Volver al catálogo

STARLINK-34982

ActivoComunicacionesSSO
NORAD 65243·PAYLOAD·🇺🇸 United States

Lanzado Aug 18, 2025 desde Vandenberg Space Force Base

Loading…

Próximos Pases (próximas 24 horas)

TLE

ActualizadoSource: CelesTrak SupGP

Época: Sep 14, 2026, 21:30 UTC

1 65243C 25179J   26257.89631944  .00019807  00000+0  61505-3 0  2571
2 65243  97.2826 297.2846 0001351 117.2249 224.9846 15.33419176    16

Sigue STARLINK-34982 en tiempo real con AllMySat

Download on the App Store